Weather in Golfito

Costa Rica     8°37′58″N   83°09′40″W
temp.,
°C
wind,
m/s
gust,
m/s
humid.,
%
clouds,
%
prec.,
mm/h
press.,
hPa
HPBL,
m
5 march, fri
fri500:00+22ne119536 3.0 101225
03:00+20ne129417 0.0 101128
06:00+19ne12929 0.0 101231
09:00+28ssw11610 0.0 1014674
12:00+31s22513 0.0 10111314
15:00+29s225913 0.3 10091022
18:00+23w018735 1.6 101049
21:00+23ene1193100 0.8 101230
6 march, sat
sat600:00+22nne119393 0.9 101131
03:00+21nne119513 0.0 101029
06:00+20ne12937 0.0 101233
09:00+28wsw11570 0.0 1013714
12:00+32sw21440 0.0 10111525
15:00+29wsw236116 0.1 10081114
18:00+24nw118744 0.4 101061
21:00+23n119136 0.4 101230
7 march, sun
sun700:00+22nne119054 0.6 101233
03:00+20ne128715 0.0 101233
06:00+19ne22789 0.0 101337
09:00+29sw11542 0.0 1015572
12:00+32ssw22431 0.0 10121473
15:00+31ssw22490 0.0 10101348
18:00+24nnw11854 0.0 101133
21:00+23nne119121 0.0 101433
8 march, mon
mon800:00+21nne126713 0.1 101335
03:00+19nne12512 0.0 101229
06:00+20nne12583 0.0 101327
09:00+29sw113718 0.0 1015574
12:00+32s22359 0.0 10131261
15:00+30ssw124891 0.0 10111150
18:00+24sse018373 0.1 101232
21:00+22ne118949 0.0 101427
9 march, tue
tue900:00+22n118874 0.1 101328
03:00+21nne1285100 0.0 101232
06:00+21ne1182100 0.0 101327
09:00+29wsw115499 0.0 1014753
12:00+32s224495 0.0 10121522
15:00+30ssw225452 0.1 10091208
18:00+24ese118958 0.9 101138
21:00+22nne129360 0.2 101327